Weather History for KCBM - March, 2013

Change the Weather History Date:

Tuesday, March 5, 2013

  Actual Average (KTUP) Record (KTUP)
Temperature  
Mean Temperature 51 °F 51 °F  
Max Temperature 64 °F 62 °F 81 °F (1939)
Min Temperature 38 °F 40 °F 12 °F (1978)
Degree Days  
Heating Degree Days 14 14  
Month to date heating degree days 74  
Since 1 July heating degree days 2505  
Cooling Degree Days 0 0  
Month to date cooling degree days 0  
Year to date cooling degree days 2  
Growing Degree Days 1 (Base 50)    
Moisture  
Dew Point 46 °F    
Average Humidity 74    
Maximum Humidity 88    
Minimum Humidity 48    
Precipitation  
Precipitation 0.17 in 0.17 in 3.52 in (1983)
Month to date precipitation 0.87  
Year to date precipitation 10.31  
Snow  
Snow 0.00 in 0.00 in 0.50 in (1932)
Month to date snowfall 0.1  
Since 1 July snowfall 1.9  
Snow Depth -    
Sea Level Pressure  
Sea Level Pressure 29.95 in    
Wind  
Wind Speed 15 mph (WSW)    
Max Wind Speed 32 mph    
Max Gust Speed 46 mph    
Visibility 9 miles    
Events Rain    
T = Trace of Precipitation, MM = Missing Value Source: NWS Daily Summary

Daily Weather History Graph

Daily Weather History Graph

Search for Another Location

Airport or City:

Trip Planner

Search our weather history database for the weather conditions in past years. The results will help you decide how hot, cold, wet, or windy it might be!

Date:

Astronomy

Mar. 05, 2013 Rise Set
Actual Time 6:16 AM CST 5:53 PM CST
Civil Twilight 5:51 AM CST 6:18 PM CST
Nautical Twilight 5:23 AM CST 6:47 PM CST
Astronomical Twilight 4:54 AM CST 7:16 PM CST
Moon 1:16 AM CST (3/5) 11:45 AM CST (3/5)
Length of Visible Light 12h 26m
Length of Day
11h 37m
Last Quarter, 40% of the Moon is Illuminated
Mar 5
Last Quarter
Mar 11
New
Mar 19
First Quarter
Mar 27
Full
Apr 2
Last Quarter

Hourly Weather History & Observations

Time (CST) Temp. Windchill Dew Point Humidity Pressure Visibility Wind Dir Wind Speed Gust Speed Precip Events Conditions
12:58 AM 58.1 °F - 47.7 °F 68% 29.93 in 10.0 mi South 12.7 mph - N/A   Mostly Cloudy
1:58 AM 57.7 °F - 48.4 °F 71% 29.92 in 10.0 mi South 15.0 mph - N/A   Mostly Cloudy
2:08 AM 57.2 °F - 48.2 °F 72% 29.90 in 10.0 mi South 16.1 mph - N/A   Mostly Cloudy
2:58 AM 57.6 °F - 48.9 °F 73% 29.91 in 10.0 mi South 10.4 mph - N/A   Mostly Cloudy
3:03 AM 57.2 °F - 50.0 °F 77% 29.90 in 10.0 mi South 10.4 mph - N/A   Overcast
3:58 AM 57.6 °F - 49.5 °F 74% 29.91 in 10.0 mi South 10.4 mph - N/A   Overcast
4:58 AM 57.6 °F - 49.8 °F 75% 29.92 in 10.0 mi South 10.4 mph - N/A   Overcast
5:28 AM 57.2 °F - 50.0 °F 77% 29.92 in 10.0 mi South 9.2 mph - N/A   Overcast
5:33 AM 57.2 °F - 50.0 °F 77% 29.92 in 10.0 mi South 8.1 mph - N/A   Overcast
5:38 AM 57.2 °F - 50.0 °F 77% 29.92 in 10.0 mi South 9.2 mph - N/A   Overcast
5:58 AM 57.6 °F - 50.5 °F 77% 29.92 in 10.0 mi South 8.1 mph - N/A   Overcast
6:03 AM 57.2 °F - 50.0 °F 77% 29.91 in 10.0 mi South 9.2 mph - N/A   Overcast
6:08 AM 57.2 °F - 50.0 °F 77% 29.92 in 10.0 mi South 6.9 mph - N/A   Overcast
6:58 AM 57.7 °F - 51.1 °F 78% 29.91 in 10.0 mi South 11.5 mph - N/A   Overcast
7:33 AM 59.0 °F - 51.8 °F 77% 29.88 in 10.0 mi South 13.8 mph - N/A   Overcast
7:43 AM 59.0 °F - 51.8 °F 77% 29.88 in 10.0 mi South 15.0 mph - N/A   Mostly Cloudy
7:53 AM 59.0 °F - 51.8 °F 77% 29.88 in 10.0 mi South 13.8 mph 20.7 mph N/A   Overcast
7:58 AM 58.8 °F - 52.5 °F 80% 29.88 in 10.0 mi South 17.3 mph 21.9 mph N/A   Overcast
8:03 AM 59.0 °F - 51.8 °F 77% 29.87 in 10.0 mi SSW 16.1 mph 24.2 mph N/A   Overcast
8:08 AM 59.0 °F - 51.8 °F 77% 29.87 in 10.0 mi South 15.0 mph 24.2 mph N/A   Overcast
8:13 AM 59.0 °F - 51.8 °F 77% 29.87 in 10.0 mi SSW 12.7 mph 21.9 mph N/A   Mostly Cloudy
8:23 AM 59.0 °F - 53.6 °F 82% 29.86 in 10.0 mi South 15.0 mph - N/A   Overcast
8:58 AM 60.8 °F - 53.4 °F 77% 29.88 in 10.0 mi SSW 15.0 mph 20.7 mph N/A   Overcast
9:48 AM 60.8 °F - 53.6 °F 77% 29.83 in 10.0 mi South 10.4 mph - N/A   Overcast
9:58 AM 62.1 °F - 54.1 °F 75% 29.84 in 10.0 mi SSW 10.4 mph - N/A   Overcast
10:18 AM 62.6 °F - 55.4 °F 77% 29.82 in 10.0 mi SSW 11.5 mph - N/A   Overcast
10:58 AM 63.9 °F - 55.9 °F 75% 29.81 in 10.0 mi SW 10.4 mph 20.7 mph N/A   Overcast
11:09 AM 64.4 °F - 57.2 °F 77% 29.80 in 10.0 mi SW 12.7 mph 20.7 mph N/A Rain Light Rain
11:13 AM 64.4 °F - 57.2 °F 77% 29.81 in 7.0 mi West 21.9 mph 25.3 mph N/A Rain Light Rain
11:14 AM 64.4 °F - 57.2 °F 77% 29.83 in 5.0 mi WNW 27.6 mph 38.0 mph N/A Rain Light Rain
11:16 AM 64.4 °F - 57.2 °F 77% 29.87 in 0.8 mi NW 32.2 mph 38.0 mph N/A Rain Heavy Rain
11:21 AM 59.0 °F - 55.4 °F 88% 29.87 in 0.5 mi NW 28.8 mph 42.6 mph N/A Rain Rain
11:22 AM 59.0 °F - 55.4 °F 88% 29.87 in 1.2 mi WNW 31.1 mph 46.0 mph N/A Rain Rain
11:28 AM 55.4 °F - 51.8 °F 88% 29.88 in 1.5 mi West 25.3 mph 46.0 mph N/A   Haze
11:33 AM 55.4 °F - 50.0 °F 82% 29.88 in 10.0 mi WNW 27.6 mph 36.8 mph N/A   Overcast
11:38 AM 53.6 °F - 50.0 °F 88% 29.88 in 10.0 mi WNW 27.6 mph 38.0 mph N/A   Overcast
11:58 AM 53.6 °F - 48.4 °F 82% 29.91 in 10.0 mi WNW 25.3 mph 31.1 mph 0.17 in   Overcast
12:08 PM 51.8 °F - 46.4 °F 82% 29.91 in 10.0 mi WNW 21.9 mph 31.1 mph N/A   Overcast
12:53 PM 48.2 °F - 42.8 °F 82% 29.96 in 10.0 mi West 27.6 mph 36.8 mph N/A   Overcast
12:58 PM 48.4 °F - 42.8 °F 81% 29.97 in 10.0 mi West 28.8 mph 35.7 mph N/A   Overcast
1:33 PM 48.2 °F - 41.0 °F 76% 29.98 in 10.0 mi WNW 24.2 mph 38.0 mph N/A   Overcast
1:53 PM 46.4 °F 37.7 °F 37.4 °F 71% 30.00 in 10.0 mi WNW 26.5 mph 38.0 mph N/A   Overcast
1:58 PM 46.6 °F - 37.6 °F 71% 30.01 in 10.0 mi WNW 26.5 mph 38.0 mph N/A   Overcast
2:08 PM 46.4 °F 37.5 °F 37.4 °F 71% 30.00 in 10.0 mi NW 27.6 mph 33.4 mph N/A   Overcast
2:53 PM 46.4 °F 39.0 °F 35.6 °F 66% 30.03 in 10.0 mi NW 19.6 mph - N/A   Overcast
2:58 PM 46.6 °F - 36.0 °F 67% 30.04 in 10.0 mi NW 20.7 mph 28.8 mph N/A   Overcast
3:03 PM 46.4 °F 38.7 °F 35.6 °F 66% 30.04 in 10.0 mi NW 20.7 mph 28.8 mph N/A   Overcast
3:08 PM 46.4 °F 38.5 °F 35.6 °F 66% 30.04 in 10.0 mi WNW 21.9 mph 27.6 mph N/A   Overcast
3:33 PM 48.2 °F - 35.6 °F 62% 30.05 in 10.0 mi NW 18.4 mph - N/A   Overcast
3:48 PM 48.2 °F - 35.6 °F 62% 30.05 in 10.0 mi NW 20.7 mph 27.6 mph N/A   Overcast
3:58 PM 47.3 °F - 35.2 °F 63% 30.07 in 10.0 mi NW 16.1 mph - N/A   Overcast
4:38 PM 48.2 °F - 33.8 °F 58% 30.06 in 10.0 mi NW 16.1 mph - N/A   Scattered Clouds
4:58 PM 48.6 °F - 33.8 °F 57% 30.08 in 10.0 mi WNW 12.7 mph - N/A   Clear
5:58 PM 46.0 °F 41.9 °F 33.3 °F 61% 30.09 in 10.0 mi NW 8.1 mph - N/A   Partly Cloudy
6:58 PM 41.4 °F 39.4 °F 32.9 °F 72% 30.10 in 10.0 mi West 3.5 mph - N/A   Clear
7:58 PM 38.3 °F - 34.9 °F 87% 30.11 in 10.0 mi Calm Calm - N/A   Partly Cloudy
8:58 PM 38.7 °F 32.9 °F 32.5 °F 79% 30.13 in 10.0 mi WNW 8.1 mph - N/A   Clear
9:58 PM 41.4 °F 35.7 °F 27.0 °F 57% 30.14 in 10.0 mi WNW 9.2 mph - N/A   Clear
10:58 PM 38.8 °F 32.6 °F 25.9 °F 60% 30.14 in 10.0 mi WNW 9.2 mph - N/A   Clear
11:58 PM 41.0 °F 31.9 °F 22.5 °F 48% 30.16 in 10.0 mi NW 19.6 mph - N/A   Clear